LVCTT SALK-SAEZ

Flight info

Callsign LVCTT
Flight time N/A
Altitude 9000
Route DCT ASADA DCT
Aircraft P28S/L-SDG/C

Departure

Time N/A
Airport SALK

Arrival

Time 2026-05-04 14:11
Airport Ezeiza International Airport - Ministro Pistarini (SAEZ)
Time Latitude Longitude Altitude Speed Heading
2026-05-04 12:49 -34.88651 -61.53352 287 ft 0 kts 78°
2026-05-04 12:50 -34.88628 -61.53334 287 ft 0 kts 235°
2026-05-04 12:50 -34.88632 -61.53341 287 ft 0 kts 235°
2026-05-04 12:57 -34.88636 -61.53347 287 ft 4 kts 234°
2026-05-04 12:57 -34.88661 -61.53390 287 ft 7 kts 236°
2026-05-04 12:57 -34.88685 -61.53435 287 ft 6 kts 234°
2026-05-04 12:57 -34.88710 -61.53473 287 ft 5 kts 224°
2026-05-04 12:58 -34.88716 -61.53481 287 ft 0 kts 231°
2026-05-04 12:59 -34.88734 -61.53506 288 ft 10 kts 214°
2026-05-04 13:00 -34.88825 -61.53437 288 ft 30 kts 136°
2026-05-04 13:00 -34.89079 -61.53133 288 ft 70 kts 134°
2026-05-04 13:00 -34.89458 -61.52670 420 ft 79 kts 134°
2026-05-04 13:00 -34.89839 -61.52192 635 ft 78 kts 133°
2026-05-04 13:01 -34.90225 -61.51724 826 ft 80 kts 134°
2026-05-04 13:01 -34.90635 -61.51210 938 ft 93 kts 120°
2026-05-04 13:01 -34.90848 -61.50428 1090 ft 101 kts 102°
2026-05-04 13:01 -34.90906 -61.49592 1299 ft 101 kts 89°
2026-05-04 13:02 -34.90926 -61.48716 1529 ft 103 kts 92°
2026-05-04 13:02 -34.91016 -61.47858 1788 ft 99 kts 96°
2026-05-04 13:02 -34.91086 -61.46986 1921 ft 112 kts 91°
2026-05-04 13:02 -34.91181 -61.46009 2117 ft 117 kts 94°
2026-05-04 13:03 -34.91278 -61.45038 2340 ft 116 kts 93°
2026-05-04 13:03 -34.91379 -61.44077 2550 ft 114 kts 94°
2026-05-04 13:03 -34.91487 -61.43131 2759 ft 112 kts 94°
2026-05-04 13:03 -34.91603 -61.42207 2963 ft 110 kts 95°
2026-05-04 13:04 -34.91718 -61.41295 3167 ft 109 kts 95°
2026-05-04 13:04 -34.91782 -61.40399 3377 ft 106 kts 86°
2026-05-04 13:04 -34.91829 -61.39520 3578 ft 103 kts 89°
2026-05-04 13:04 -34.91882 -61.38610 3716 ft 109 kts 88°
2026-05-04 13:05 -34.91926 -61.37691 3857 ft 111 kts 87°
2026-05-04 13:05 -34.91957 -61.36728 3993 ft 114 kts 85°
2026-05-04 13:05 -34.91967 -61.35743 4139 ft 119 kts 85°
2026-05-04 13:05 -34.91980 -61.34729 4271 ft 119 kts 86°
2026-05-04 13:06 -34.91989 -61.33721 4407 ft 120 kts 86°
2026-05-04 13:06 -34.91995 -61.32692 4529 ft 123 kts 86°
2026-05-04 13:06 -34.91991 -61.31658 4655 ft 122 kts 85°
2026-05-04 13:06 -34.91979 -61.30626 4785 ft 122 kts 85°
2026-05-04 13:07 -34.91966 -61.29588 4907 ft 123 kts 84°
2026-05-04 13:07 -34.91946 -61.28551 5030 ft 121 kts 84°
2026-05-04 13:07 -34.91921 -61.27532 5151 ft 119 kts 84°
2026-05-04 13:07 -34.91890 -61.26538 5274 ft 118 kts 83°
2026-05-04 13:08 -34.91850 -61.25531 5398 ft 120 kts 82°
2026-05-04 13:08 -34.91797 -61.24517 5524 ft 120 kts 82°
2026-05-04 13:08 -34.91736 -61.23506 5649 ft 120 kts 81°
2026-05-04 13:08 -34.91667 -61.22494 5769 ft 118 kts 81°
2026-05-04 13:09 -34.91594 -61.21507 5892 ft 117 kts 80°
2026-05-04 13:09 -34.91514 -61.20531 6009 ft 115 kts 79°
2026-05-04 13:09 -34.91424 -61.19557 6133 ft 116 kts 78°
2026-05-04 13:09 -34.91321 -61.18577 6257 ft 116 kts 78°
2026-05-04 13:10 -34.91208 -61.17604 6381 ft 115 kts 77°
2026-05-04 13:10 -34.91089 -61.16664 6502 ft 113 kts 76°
2026-05-04 13:10 -34.90959 -61.15724 6623 ft 112 kts 75°
2026-05-04 13:10 -34.90824 -61.14795 6743 ft 111 kts 75°
2026-05-04 13:11 -34.90686 -61.13876 6865 ft 110 kts 74°
2026-05-04 13:11 -34.90541 -61.12959 6984 ft 110 kts 73°
2026-05-04 13:11 -34.90389 -61.12055 7103 ft 109 kts 73°
2026-05-04 13:11 -34.90228 -61.11160 7223 ft 107 kts 72°
2026-05-04 13:12 -34.90061 -61.10289 7340 ft 104 kts 71°
2026-05-04 13:12 -34.89887 -61.09439 7458 ft 104 kts 70°
2026-05-04 13:12 -34.89697 -61.08582 7587 ft 106 kts 69°
2026-05-04 13:12 -34.89486 -61.07711 7718 ft 108 kts 68°
2026-05-04 13:13 -34.89372 -61.06805 7836 ft 113 kts 97°
2026-05-04 13:13 -34.89534 -61.05873 7969 ft 112 kts 96°
2026-05-04 13:13 -34.89648 -61.04941 8098 ft 113 kts 95°
2026-05-04 13:13 -34.89753 -61.03996 8227 ft 112 kts 94°
2026-05-04 13:14 -34.89852 -61.03049 8353 ft 112 kts 94°
2026-05-04 13:14 -34.89946 -61.02107 8477 ft 112 kts 93°
2026-05-04 13:14 -34.90037 -61.01169 8599 ft 111 kts 93°
2026-05-04 13:14 -34.90128 -61.00234 8725 ft 111 kts 94°
2026-05-04 13:15 -34.90218 -60.99298 8848 ft 110 kts 93°
2026-05-04 13:15 -34.90307 -60.98367 8927 ft 114 kts 94°
2026-05-04 13:15 -34.90404 -60.97367 8929 ft 123 kts 94°
2026-05-04 13:15 -34.90506 -60.96309 8926 ft 128 kts 94°
2026-05-04 13:16 -34.90612 -60.95220 8929 ft 131 kts 94°
2026-05-04 13:16 -34.90719 -60.94100 8926 ft 135 kts 94°
2026-05-04 13:16 -34.90827 -60.92974 8931 ft 136 kts 94°
2026-05-04 13:16 -34.90936 -60.91832 8936 ft 136 kts 94°
2026-05-04 13:17 -34.91046 -60.90687 8936 ft 136 kts 94°
2026-05-04 13:17 -34.91156 -60.89534 8936 ft 137 kts 94°
2026-05-04 13:17 -34.91266 -60.88373 8934 ft 138 kts 94°
2026-05-04 13:17 -34.91378 -60.87208 8936 ft 139 kts 94°
2026-05-04 13:18 -34.91488 -60.86039 8934 ft 139 kts 94°
2026-05-04 13:18 -34.91600 -60.84875 8934 ft 138 kts 94°
2026-05-04 13:18 -34.91710 -60.83712 8935 ft 139 kts 94°
2026-05-04 13:18 -34.91820 -60.82557 8935 ft 139 kts 94°
2026-05-04 13:19 -34.91930 -60.81387 8935 ft 139 kts 94°
2026-05-04 13:19 -34.92041 -60.80220 8936 ft 139 kts 94°
2026-05-04 13:19 -34.92151 -60.79052 8934 ft 139 kts 94°
2026-05-04 13:19 -34.92260 -60.77886 8935 ft 138 kts 94°
2026-05-04 13:20 -34.92370 -60.76713 8935 ft 139 kts 94°
2026-05-04 13:20 -34.92482 -60.75539 8936 ft 140 kts 94°
2026-05-04 13:20 -34.92593 -60.74361 8936 ft 139 kts 94°
2026-05-04 13:20 -34.92704 -60.73186 8938 ft 140 kts 94°
2026-05-04 13:21 -34.92815 -60.72005 8939 ft 140 kts 94°
2026-05-04 13:21 -34.92925 -60.70827 8938 ft 140 kts 94°
2026-05-04 13:21 -34.93035 -60.69659 8940 ft 141 kts 94°
2026-05-04 13:21 -34.93145 -60.68473 8938 ft 140 kts 94°
2026-05-04 13:22 -34.93257 -60.67288 8939 ft 141 kts 94°
2026-05-04 13:22 -34.93368 -60.66100 8941 ft 140 kts 94°
2026-05-04 13:22 -34.93478 -60.64917 8940 ft 141 kts 94°
2026-05-04 13:22 -34.93588 -60.63730 8939 ft 141 kts 94°
2026-05-04 13:23 -34.93699 -60.62546 8939 ft 140 kts 94°
2026-05-04 13:23 -34.93809 -60.61369 8937 ft 140 kts 94°
2026-05-04 13:23 -34.93916 -60.60210 8938 ft 139 kts 94°
2026-05-04 13:23 -34.94024 -60.59047 8945 ft 138 kts 94°
2026-05-04 13:24 -34.94132 -60.57880 8945 ft 139 kts 94°
2026-05-04 13:24 -34.94240 -60.56710 8947 ft 139 kts 94°
2026-05-04 13:24 -34.94349 -60.55530 8946 ft 140 kts 94°
2026-05-04 13:25 -34.94566 -60.53186 8946 ft 139 kts 94°
2026-05-04 13:25 -34.94674 -60.52012 8948 ft 140 kts 94°
2026-05-04 13:25 -34.94783 -60.50831 8948 ft 140 kts 94°
2026-05-04 13:25 -34.94890 -60.49669 8950 ft 140 kts 94°
2026-05-04 13:26 -34.94998 -60.48489 8951 ft 140 kts 94°
2026-05-04 13:26 -34.95107 -60.47309 8951 ft 140 kts 94°
2026-05-04 13:26 -34.95215 -60.46126 8951 ft 140 kts 94°
2026-05-04 13:26 -34.95324 -60.44943 8951 ft 140 kts 94°
2026-05-04 13:27 -34.95432 -60.43759 8950 ft 140 kts 94°
2026-05-04 13:27 -34.95539 -60.42583 8956 ft 140 kts 94°
2026-05-04 13:27 -34.95646 -60.41404 8955 ft 140 kts 94°
2026-05-04 13:27 -34.95753 -60.40226 8954 ft 140 kts 94°
2026-05-04 13:28 -34.95861 -60.39049 8956 ft 140 kts 94°
2026-05-04 13:28 -34.95969 -60.37873 8953 ft 139 kts 94°
2026-05-04 13:28 -34.96076 -60.36697 8957 ft 140 kts 94°
2026-05-04 13:28 -34.96182 -60.35521 8954 ft 139 kts 94°
2026-05-04 13:29 -34.96289 -60.34349 8954 ft 139 kts 94°
2026-05-04 13:29 -34.96394 -60.33179 8958 ft 139 kts 94°
2026-05-04 13:29 -34.96500 -60.32022 8954 ft 139 kts 94°
2026-05-04 13:29 -34.96605 -60.30851 8954 ft 139 kts 94°
2026-05-04 13:30 -34.96711 -60.29674 8959 ft 140 kts 94°
2026-05-04 13:30 -34.96819 -60.28492 8958 ft 140 kts 94°
2026-05-04 13:30 -34.96925 -60.27309 8956 ft 139 kts 94°
2026-05-04 13:30 -34.97031 -60.26132 8955 ft 139 kts 94°
2026-05-04 13:31 -34.97137 -60.24959 8958 ft 140 kts 94°
2026-05-04 13:31 -34.97242 -60.23779 8973 ft 139 kts 94°
2026-05-04 13:31 -34.97347 -60.22597 8969 ft 141 kts 94°
2026-05-04 13:31 -34.97456 -60.21408 8974 ft 141 kts 94°
2026-05-04 13:32 -34.97563 -60.20219 8969 ft 141 kts 94°
2026-05-04 13:32 -34.97670 -60.19027 8976 ft 142 kts 94°
2026-05-04 13:32 -34.97775 -60.17834 8969 ft 141 kts 94°
2026-05-04 13:32 -34.97881 -60.16652 8969 ft 140 kts 94°
2026-05-04 13:33 -34.97985 -60.15486 8970 ft 141 kts 94°
2026-05-04 13:33 -34.98090 -60.14309 8966 ft 139 kts 94°
2026-05-04 13:33 -34.98193 -60.13139 8964 ft 138 kts 94°
2026-05-04 13:33 -34.98297 -60.11968 8965 ft 139 kts 94°
2026-05-04 13:34 -34.98403 -60.10795 8966 ft 139 kts 94°
2026-05-04 13:34 -34.98505 -60.09618 8965 ft 139 kts 94°
2026-05-04 13:34 -34.98610 -60.08443 8969 ft 140 kts 94°
2026-05-04 13:34 -34.98714 -60.07261 8966 ft 140 kts 94°
2026-05-04 13:35 -34.98819 -60.06078 8960 ft 141 kts 94°
2026-05-04 13:35 -34.99028 -60.03709 8965 ft 140 kts 94°
2026-05-04 13:35 -34.99132 -60.02530 8958 ft 139 kts 94°
2026-05-04 13:36 -34.99234 -60.01356 8959 ft 139 kts 94°
2026-05-04 13:36 -34.99339 -60.00178 8956 ft 140 kts 94°
2026-05-04 13:36 -34.99444 -59.98999 8956 ft 140 kts 94°
2026-05-04 13:36 -34.99548 -59.97812 8956 ft 142 kts 94°
2026-05-04 13:37 -34.99652 -59.96611 8955 ft 142 kts 94°
2026-05-04 13:37 -34.99759 -59.95409 8964 ft 142 kts 94°
2026-05-04 13:37 -34.99863 -59.94218 8967 ft 143 kts 94°
2026-05-04 13:37 -34.99934 -59.93398 8965 ft 144 kts 94°
2026-05-04 13:38 -35.00074 -59.91782 8955 ft 145 kts 94°
2026-05-04 13:38 -35.00180 -59.90559 8956 ft 145 kts 94°
2026-05-04 13:38 -35.00289 -59.89336 8948 ft 145 kts 94°
2026-05-04 13:38 -35.00398 -59.88120 8946 ft 144 kts 94°
2026-05-04 13:39 -35.00502 -59.86907 8947 ft 144 kts 93°
2026-05-04 13:39 -35.00605 -59.85688 8955 ft 144 kts 94°
2026-05-04 13:39 -35.00710 -59.84472 8954 ft 144 kts 94°
2026-05-04 13:39 -35.00800 -59.83262 8963 ft 143 kts 94°
2026-05-04 13:40 -35.00907 -59.82054 8956 ft 143 kts 94°
2026-05-04 13:40 -35.01016 -59.80846 8968 ft 143 kts 94°
2026-05-04 13:40 -35.01124 -59.79634 8964 ft 145 kts 94°
2026-05-04 13:40 -35.01229 -59.78416 8969 ft 144 kts 94°
2026-05-04 13:41 -35.01334 -59.77195 8965 ft 145 kts 94°
2026-05-04 13:41 -35.01440 -59.75967 8965 ft 146 kts 94°
2026-05-04 13:41 -35.01545 -59.74731 8966 ft 147 kts 94°
2026-05-04 13:42 -35.01757 -59.72278 8968 ft 147 kts 94°
2026-05-04 13:42 -35.01863 -59.71037 8967 ft 147 kts 94°
2026-05-04 13:42 -35.01969 -59.69796 8969 ft 147 kts 94°
2026-05-04 13:42 -35.02075 -59.68551 8969 ft 147 kts 94°
2026-05-04 13:43 -35.02179 -59.67314 8967 ft 146 kts 94°
2026-05-04 13:43 -35.02284 -59.66083 8972 ft 147 kts 94°
2026-05-04 13:43 -35.02390 -59.64836 8970 ft 147 kts 94°
2026-05-04 13:43 -35.02498 -59.63585 8972 ft 149 kts 94°
2026-05-04 13:44 -35.02568 -59.62754 8968 ft 148 kts 94°
2026-05-04 13:44 -35.02609 -59.61512 8962 ft 146 kts 91°
2026-05-04 13:44 -35.02713 -59.59873 8965 ft 146 kts 92°
2026-05-04 13:44 -35.02782 -59.58632 8963 ft 147 kts 91°
2026-05-04 13:45 -35.02845 -59.57377 8966 ft 149 kts 91°
2026-05-04 13:45 -35.02908 -59.56105 8966 ft 150 kts 91°
2026-05-04 13:45 -35.02973 -59.54837 8969 ft 150 kts 91°
2026-05-04 13:45 -35.03039 -59.53569 8969 ft 149 kts 91°
2026-05-04 13:46 -35.03081 -59.52733 8968 ft 149 kts 91°
2026-05-04 13:46 -35.03145 -59.51470 8971 ft 149 kts 91°
2026-05-04 13:46 -35.03209 -59.50205 8972 ft 149 kts 92°
2026-05-04 13:46 -35.03275 -59.48938 8972 ft 149 kts 91°
2026-05-04 13:47 -35.03336 -59.47663 8966 ft 151 kts 91°
2026-05-04 13:47 -35.03401 -59.46394 8963 ft 149 kts 91°
2026-05-04 13:47 -35.03466 -59.45132 8965 ft 150 kts 91°
2026-05-04 13:47 -35.03530 -59.43859 8963 ft 150 kts 91°
2026-05-04 13:48 -35.03593 -59.42590 8965 ft 150 kts 91°
2026-05-04 13:48 -35.03656 -59.41321 8963 ft 149 kts 91°
2026-05-04 13:48 -35.03720 -59.40056 8967 ft 149 kts 91°
2026-05-04 13:48 -35.03783 -59.38806 8966 ft 149 kts 91°
2026-05-04 13:49 -35.03844 -59.37539 8965 ft 150 kts 91°
2026-05-04 13:49 -35.03907 -59.36270 8960 ft 150 kts 91°
2026-05-04 13:49 -35.03972 -59.35003 8962 ft 149 kts 91°
2026-05-04 13:49 -35.04033 -59.33752 8960 ft 148 kts 91°
2026-05-04 13:50 -35.04095 -59.32477 8877 ft 154 kts 91°
2026-05-04 13:50 -35.04159 -59.31143 8765 ft 160 kts 91°
2026-05-04 13:50 -35.04228 -59.29772 8650 ft 164 kts 92°
2026-05-04 13:50 -35.04298 -59.28381 8537 ft 164 kts 91°
2026-05-04 13:51 -35.04366 -59.26989 8414 ft 164 kts 91°
2026-05-04 13:51 -35.04432 -59.25618 8289 ft 164 kts 91°
2026-05-04 13:51 -35.04499 -59.24229 8165 ft 163 kts 91°
2026-05-04 13:51 -35.04568 -59.22840 8039 ft 164 kts 91°
2026-05-04 13:52 -35.04703 -59.20050 7804 ft 166 kts 91°
2026-05-04 13:52 -35.04772 -59.18642 7679 ft 166 kts 91°
2026-05-04 13:52 -35.04838 -59.17241 7559 ft 165 kts 91°
2026-05-04 13:53 -35.04905 -59.15846 7430 ft 164 kts 91°
2026-05-04 13:53 -35.04972 -59.14456 7302 ft 164 kts 91°
2026-05-04 13:53 -35.05039 -59.13059 7176 ft 164 kts 91°
2026-05-04 13:54 -35.05171 -59.10263 6923 ft 165 kts 91°
2026-05-04 13:54 -35.05237 -59.08854 6810 ft 167 kts 91°
2026-05-04 13:54 -35.05373 -59.06019 6565 ft 168 kts 91°
2026-05-04 13:55 -35.05440 -59.04594 6437 ft 169 kts 90°
2026-05-04 13:55 -35.05571 -59.01759 6244 ft 168 kts 91°
2026-05-04 13:55 -35.05637 -59.00342 6145 ft 166 kts 91°
2026-05-04 13:56 -35.05704 -58.98924 6039 ft 167 kts 91°
2026-05-04 13:56 -35.05769 -58.97505 5942 ft 168 kts 91°
2026-05-04 13:56 -35.05902 -58.94660 5740 ft 166 kts 91°
2026-05-04 13:57 -35.05967 -58.93257 5631 ft 164 kts 90°
2026-05-04 13:57 -35.06026 -58.91942 5546 ft 166 kts 91°
2026-05-04 13:58 -35.06221 -58.87710 5245 ft 168 kts 90°
2026-05-04 13:58 -35.06350 -58.84884 5043 ft 166 kts 90°
2026-05-04 13:58 -35.06412 -58.83478 4970 ft 164 kts 90°
2026-05-04 13:59 -35.06476 -58.82114 4964 ft 159 kts 90°
2026-05-04 13:59 -35.06536 -58.80765 4961 ft 159 kts 90°
2026-05-04 13:59 -35.06653 -58.78125 4961 ft 156 kts 90°
2026-05-04 14:00 -35.06714 -58.76780 4971 ft 157 kts 90°
2026-05-04 14:00 -35.06831 -58.74124 4976 ft 158 kts 90°
2026-05-04 14:00 -35.06891 -58.72797 4978 ft 156 kts 90°
2026-05-04 14:01 -35.06950 -58.71469 4975 ft 157 kts 90°
2026-05-04 14:01 -35.07008 -58.70132 4976 ft 158 kts 89°
2026-05-04 14:01 -35.07018 -58.67461 4937 ft 156 kts 69°
2026-05-04 14:02 -35.06515 -58.66264 4737 ft 161 kts 53°
2026-05-04 14:02 -35.05935 -58.65062 4551 ft 166 kts 54°
2026-05-04 14:02 -35.05394 -58.63795 4354 ft 170 kts 58°
2026-05-04 14:02 -35.04887 -58.62509 4164 ft 171 kts 59°
2026-05-04 14:03 -35.04376 -58.61201 3972 ft 170 kts 58°
2026-05-04 14:03 -35.03867 -58.59907 3765 ft 169 kts 58°
2026-05-04 14:03 -35.03360 -58.58620 3566 ft 169 kts 58°
2026-05-04 14:03 -35.02851 -58.57330 3367 ft 169 kts 58°
2026-05-04 14:04 -35.01821 -58.54721 2982 ft 170 kts 58°
2026-05-04 14:04 -35.01315 -58.53435 2782 ft 166 kts 58°
2026-05-04 14:04 -35.00816 -58.52169 2583 ft 166 kts 59°
2026-05-04 14:05 -34.99847 -58.49714 2172 ft 159 kts 59°
2026-05-04 14:05 -34.99368 -58.48531 2053 ft 153 kts 57°
2026-05-04 14:05 -34.98644 -58.47685 2050 ft 138 kts 19°
2026-05-04 14:06 -34.97741 -58.47399 2058 ft 130 kts 357°
2026-05-04 14:06 -34.96894 -58.47730 2057 ft 130 kts 338°
2026-05-04 14:06 -34.96018 -58.48071 2066 ft 135 kts 340°
2026-05-04 14:06 -34.95142 -58.48396 2061 ft 131 kts 340°
2026-05-04 14:07 -34.94268 -58.48713 2066 ft 133 kts 339°
2026-05-04 14:07 -34.93364 -58.49024 2049 ft 135 kts 341°
2026-05-04 14:07 -34.92462 -58.49340 1948 ft 140 kts 342°
2026-05-04 14:07 -34.91516 -58.49669 1768 ft 143 kts 341°
2026-05-04 14:08 -34.90559 -58.50008 1575 ft 142 kts 342°
2026-05-04 14:08 -34.89613 -58.50337 1381 ft 142 kts 342°
2026-05-04 14:08 -34.88732 -58.50643 1220 ft 127 kts 342°
2026-05-04 14:08 -34.87932 -58.50920 1046 ft 112 kts 342°
2026-05-04 14:09 -34.86531 -58.51412 772 ft 99 kts 342°
2026-05-04 14:09 -34.85895 -58.51634 646 ft 92 kts 343°
2026-05-04 14:10 -34.84639 -58.52074 400 ft 94 kts 342°
2026-05-04 14:10 -34.84015 -58.52290 307 ft 92 kts 343°
2026-05-04 14:10 -34.83399 -58.52501 187 ft 91 kts 343°
2026-05-04 14:10 -34.82807 -58.52707 99 ft 85 kts 342°
2026-05-04 14:11 -34.82283 -58.52892 82 ft 71 kts 342°
2026-05-04 14:11 -34.81520 -58.53158 75 ft 44 kts 348°
2026-05-04 14:11 -34.81282 -58.53237 78 ft 19 kts 345°
2026-05-04 14:12 -34.81168 -58.53279 78 ft 17 kts 344°
2026-05-04 14:12 -34.81057 -58.53317 77 ft 16 kts 344°
2026-05-04 14:12 -34.80866 -58.53433 76 ft 17 kts 258°
2026-05-04 14:13 -34.80891 -58.53589 71 ft 20 kts 285°
2026-05-04 14:13 -34.80779 -58.53665 70 ft 20 kts 344°
2026-05-04 14:13 -34.80647 -58.53712 70 ft 20 kts 345°
2026-05-04 14:13 -34.80512 -58.53735 68 ft 20 kts
2026-05-04 14:14 -34.80383 -58.53684 67 ft 20 kts 31°
2026-05-04 14:14 -34.80183 -58.53457 65 ft 19 kts 46°
2026-05-04 14:14 -34.80095 -58.53346 70 ft 18 kts 43°
2026-05-04 14:15 -34.79907 -58.53116 65 ft 20 kts 46°
2026-05-04 14:15 -34.79729 -58.52889 66 ft 13 kts 76°
2026-05-04 14:16 -34.79858 -58.52702 70 ft 16 kts 134°
2026-05-04 14:16 -34.79943 -58.52600 67 ft 18 kts 135°
2026-05-04 14:17 -34.79964 -58.52504 65 ft 7 kts 45°
2026-05-04 14:17 -34.79952 -58.52510 70 ft 0 kts 273°
2026-05-04 14:17 -34.79958 -58.52520 70 ft 0 kts 222°